Location: Newark
(42.8481°N, 0.4872°E)
Time: 07:17:11
(UTC+00:00)

Vanguard 1 - Pass Details

Date: 31 October 2020
Orbit: 650 x 3833 km, 34.2° (Epoch: 28 November)

Event Time Altitude Azimuth Distance (km) Brightness Sun altitude
Rises 17:26:50 0° 281° (WNW) 7,958 16.1 -7.1°
Reaches altitude 10° 17:32:58 10° 276° (W) 6,789 15.7 -8.2°
Maximum altitude 17:51:42 41° 216° (SW) 3,685 13.4 -11.6°
Drops below altitude 10° 18:03:38 10° 152° (SSE) 4,405 13.2 -13.7°
Sets 18:06:40 0° 144° (SE) 5,036 13.4 -14.3°
